Stockton, CA

4:20 AM PST on January 24, 2018 (GMT -0800)
Stockton Metro

Weather History for KSCK - February, 2013

Change the Weather History Date:

Friday, February 1, 2013

  Actual Average Record
Temperature  
Mean Temperature 49 °F -  
Max Temperature 66 °F 57 °F 72 °F (1976)
Min Temperature 31 °F 39 °F 26 °F (1950)
Degree Days  
Heating Degree Days 16 17  
Month to date heating degree days 16 17  
Since 1 July heating degree days 1564 1672  
Cooling Degree Days 0 0  
Month to date cooling degree days 0 0  
Year to date cooling degree days 0 0  
Moisture  
Dew Point 39 °F    
Average Humidity 76    
Maximum Humidity 100    
Minimum Humidity 52    
Precipitation  
Precipitation 0.00 in 0.09 in 1.27 in (1960)
Month to date precipitation 0.00 0.09  
Year to date precipitation 1.28 2.83  
Since 1 July precipitation 8.40  
Snow  
Snow 0.00 in - 0.00 in (2002)
Month to date snowfall 0.0  
Since 1 July snowfall 0.0  
Snow Depth -    
Sea Level Pressure  
Sea Level Pressure 30.20 in    
Wind  
Wind Speed 2 mph (South)    
Max Wind Speed 6 mph    
Max Gust Speed 7 mph    
Visibility 4 miles    
Events Fog    
T = Trace of Precipitation, MM = Missing Value Source: NWS Daily Summary

Daily Weather History Graph

Daily Weather History Graph

Search for Another Location

Airport or City:

Trip Planner

Search our weather history database for the weather conditions in past years. The results will help you decide how hot, cold, wet, or windy it might be!

Date:

Astronomy

Feb. 01, 2013 Rise Set
Actual Time 7:08 AM PST 5:28 PM PST
Civil Twilight 6:41 AM PST 5:56 PM PST
Nautical Twilight 6:09 AM PST 6:27 PM PST
Astronomical Twilight 5:38 AM PST 6:58 PM PST
Moon 11:34 PM PST (2/1) 9:52 AM PST (2/1)
Length of Visible Light 11h 15m
Length of Day
10h 19m
Waning Gibbous, 69% of the Moon is Illuminated
Feb 1
Waning Gibbous
Feb 3
Last Quarter
Feb 9
New
Feb 17
First Quarter
Feb 25
Full

Hourly Weather History & Observations

Time (PST) Temp. Windchill Dew Point Humidity Pressure Visibility Wind Dir Wind Speed Gust Speed Precip Events Conditions
12:55 AM 39.9 °F 37.8 °F 39.0 °F 97% 30.20 in 2.5 mi WSW 3.5 mph - N/A   Clear
1:34 AM 39.2 °F - 37.4 °F 93% 30.20 in 3.0 mi Calm Calm - N/A   Clear
1:53 AM 37.4 °F 33.8 °F 37.4 °F 100% 30.20 in 2.0 mi WSW 4.6 mph - N/A   Clear
1:55 AM 37.9 °F 35.5 °F 37.9 °F 100% 30.20 in 2.0 mi WSW 3.5 mph - N/A   Clear
2:04 AM 37.4 °F 33.8 °F 37.4 °F 100% 30.20 in 1.2 mi WSW 4.6 mph - N/A   Clear
2:08 AM 37.4 °F 33.8 °F 37.4 °F 100% 30.20 in 0.8 mi SW 4.6 mph - N/A   Mist
2:19 AM 37.4 °F 33.8 °F 37.4 °F 100% 30.20 in 1.2 mi WSW 4.6 mph - N/A   Scattered Clouds
2:43 AM 37.4 °F 33.8 °F 37.4 °F 100% 30.20 in 2.0 mi West 4.6 mph - N/A   Partly Cloudy
2:55 AM 39.0 °F 35.7 °F 37.9 °F 96% 30.20 in 2.5 mi West 4.6 mph - N/A   Clear
3:55 AM 37.9 °F - 37.9 °F 100% 30.20 in 2.0 mi Calm Calm - N/A   Clear
4:42 AM 37.4 °F - 37.4 °F 100% 30.20 in 0.8 mi Calm Calm - N/A   Clear
4:55 AM 39.0 °F 36.8 °F 39.0 °F 100% 30.20 in 1.5 mi NNW 3.5 mph - N/A   Clear
5:17 AM 37.4 °F - 37.4 °F 100% 30.20 in 0.5 mi Calm Calm - N/A Fog Fog
5:27 AM 37.4 °F - 37.4 °F 100% 30.20 in 1.5 mi Calm Calm - N/A   Partly Cloudy
5:30 AM 37.4 °F - 37.4 °F 100% 30.20 in 3.0 mi Calm Calm - N/A   Clear
5:39 AM 35.6 °F - 35.6 °F 100% 30.20 in 2.5 mi Calm Calm - N/A   Clear
5:46 AM 35.6 °F - 33.8 °F 93% 30.21 in 1.0 mi Calm Calm - N/A   Mist
5:53 AM 33.8 °F 30.8 °F 33.8 °F 100% 30.21 in 0.8 mi ESE 3.5 mph - N/A   Mist
5:55 AM 33.1 °F 30.0 °F 33.1 °F 100% 30.21 in 1.0 mi ESE 3.5 mph - N/A   Mist
6:01 AM 32.0 °F 27.5 °F 32.0 °F 100% 30.21 in 0.2 mi ESE 4.6 mph - N/A Fog Fog
6:21 AM 33.8 °F - 33.8 °F 100% 30.21 in 1.0 mi Calm Calm - N/A   Mist
6:26 AM 33.8 °F 29.6 °F 33.8 °F 100% 30.21 in 2.0 mi East 4.6 mph - N/A   Scattered Clouds
6:37 AM 33.8 °F 30.8 °F 33.8 °F 100% 30.22 in 1.2 mi East 3.5 mph - N/A   Mostly Cloudy
6:46 AM 33.8 °F 30.8 °F 33.8 °F 100% 30.22 in 0.2 mi East 3.5 mph - N/A Fog Fog
6:55 AM 32.0 °F 28.7 °F 32.0 °F 100% 30.22 in 0.2 mi East 3.5 mph - N/A Fog Fog
6:59 AM 32.0 °F - 32.0 °F 100% 30.22 in 0.5 mi Calm Calm - N/A Fog Fog
7:15 AM 32.0 °F - 32.0 °F 100% 30.22 in 0.2 mi Calm Calm - N/A Fog Fog
7:55 AM 32.0 °F 28.7 °F 32.0 °F 100% 30.23 in 0.2 mi SE 3.5 mph - N/A Fog Fog
8:55 AM 37.0 °F - 37.0 °F 100% 30.23 in 0.5 mi Calm Calm - N/A Fog Fog
9:31 AM 42.8 °F - 41.0 °F 93% 30.23 in 3.0 mi Calm Calm - N/A   Haze
9:55 AM 46.0 °F - 43.0 °F 89% 30.23 in 5.0 mi Calm Calm - N/A   Haze
10:55 AM 53.1 °F - 45.0 °F 74% 30.22 in 6.0 mi Calm Calm - N/A   Haze
11:55 AM 57.0 °F - 46.0 °F 67% 30.19 in 8.0 mi Calm Calm - N/A   Haze
12:55 PM 61.0 °F - 46.0 °F 58% 30.17 in 8.0 mi Calm Calm - N/A   Clear
1:55 PM 63.0 °F - 45.0 °F 52% 30.14 in 9.0 mi Variable 3.5 mph - N/A   Clear
2:55 PM 64.9 °F - 46.0 °F 50% 30.14 in 9.0 mi North 3.5 mph - N/A   Clear
3:55 PM 64.9 °F - 46.0 °F 50% 30.13 in 9.0 mi Calm Calm - N/A   Clear
4:55 PM 60.1 °F - 46.9 °F 62% 30.14 in 9.0 mi West 6.9 mph - N/A   Clear
5:55 PM 55.9 °F - 45.0 °F 67% 30.15 in 10.0 mi Calm Calm - N/A   Clear
6:55 PM 52.0 °F - 45.0 °F 77% 30.18 in 8.0 mi Calm Calm - N/A   Clear
7:55 PM 51.1 °F - 45.0 °F 80% 30.19 in 7.0 mi Calm Calm - N/A   Clear
8:55 PM 50.0 °F - 45.0 °F 83% 30.21 in 8.0 mi Calm Calm - N/A   Clear
9:55 PM 46.9 °F - 43.0 °F 86% 30.21 in 6.0 mi East 4.6 mph - N/A   Clear
10:55 PM 46.0 °F - 42.1 °F 86% 30.21 in 5.0 mi Calm Calm - N/A   Clear
11:55 PM 44.1 °F - 42.1 °F 93% 30.21 in 4.0 mi Calm Calm - N/A   Clear